Terminal Aerodrome Forecast
Issued by NWS

Home | Current Version | Previous Version | Text Only | Print | Product List | Glossary Off
Versions: 1 2 3 4 5 6 7 8 9 10 11 12 13 14 15 16 17 18 19 20 21

430
FTUS43 KGRB 051739 AAB
TAFCWA
TAF AMD
KCWA 051739Z 0518/0618 16007KT P6SM OVC009
     FM060300 18006KT P6SM OVC007
     FM061000 21006KT P6SM OVC005
     FM061500 23009KT 5SM -SN OVC003=

USA.gov is the U.S. government's official web portal to all federal, state and local government web resources and services.